Regional Weather Roundup
Issued by NWS New Orleans/Baton Rouge, LA

Home | Current Version | Previous Version | Text Only | Print | Product List | Glossary Off
Versions: 1 2 3 4 5 6 7 8 9 10 11 12 13 14 15 16 17 18 19 20 21 22 23 24 25 26 27 28 29 30 31 32 33 34 35 36 37 38 39 40 41 42 43 44 45 46 47 48 49 50

751
ASUS44 KLIX 201710
RWRLIX
NEW ORLEANS REGIONAL WEATHER ROUNDUP
NATIONAL WEATHER SERVICE NEW ORLEANS LA
1200 PM CDT SUN APR 20 2014

NOTE: "FAIR" INDICATES FEW OR NO CLOUDS BELOW 12,000 FEET WITH NO
      SIGNIFICANT WEATHER AND/OR OBSTRUCTIONS TO VISIBILITY.
      SKY/WX - SKY CONDITION AND SIGNIFICANT WEATHER.
      TMP - AIR TEMPERATURE.     DP    - DEWPOINT TEMPERATURE.
      RH  - RELATIVE HUMIDITY.   PRES  - PRESSURE.
      HI  - HEAT INDEX.          WCI   - WIND CHILL INDEX.

*  THESE STATIONS ARE NOT NWS OR FAA STATIONS AND ARE NOT UNDER
   NWS QUALITY CONTROL.

LAZ038-040-048-061>063-065>067-069-201800-
SOUTHEAST LOUISIANA

CITY           SKY/WX    TMP DP  RH WIND       PRES   REMARKS
N.O. AUDUBON     N/A     78  58  50 MISG        N/A
N.O. INTL ARPT MOSUNNY   77  62  59 NE9       30.19S
N.O. LAKEFRONT SUNNY     73  59  61 NE7       30.19F
N.O. DOWNTOWN*   N/A     75  57  53 E3        30.20S
SLIDELL        SUNNY     77  54  44 NE7       30.18F
BATON ROUGE    SUNNY     80  48  32 SE7       30.18F
BOOTHVILLE     SUNNY     69  60  73 NE7       30.20R
BELLE CHASSE   MOSUNNY   77  60  55 VRB5      30.18S
BOGALUSA*        N/A     78  53  43 N5        30.20F
GALLIANO*      SUNNY     75  62  62 E7        30.19S
NEW ROADS*       N/A     77  53  43 N6        30.18F
GONZALES*        N/A     78  52  40 CALM      30.18S
HAMMOND*       SUNNY     79  55  44 E5        30.21S
HOUMA*         MOSUNNY   79  55  44 NE5       30.19F
PORT FOURCHON* SUNNY     72  63  73 E9        30.20S

$$

MSZ070-080>082-201800-
SOUTHERN MISSISSIPPI

CITY           SKY/WX    TMP DP  RH WIND       PRES   REMARKS
MCCOMB         SUNNY     76  55  48 VRB5      30.20F
GULFPORT       SUNNY     79  53  40 N9        30.16F
BILOXI         SUNNY     75  56  51 NE8       30.17F
PASCAGOULA     SUNNY     74  54  49 N7        30.18S
STENNIS ARPT*  SUNNY     75  54  46 VRB5      30.18F

$$

COASTAL OBSERVATIONS
LAKE AND NEARSHORE STATIONS

STATION/POSITION TIME  TEMP    WIND        PRES    WAVE
                       AIR SEA DIR/SP/G            HT/PER
                 (UTC) (F)     (DEG/KT/KT) (MB)    (FT/S)
PASCAGOULA       1700   72     340/  4/  7 1021.4
WAVELAND YACHT   1700   65 69  150/  7/  8 1021.2
GRAND ISLE       1700   70 68  100/  6/  8 1022.8
SOUTHWEST PASS   1700   73 58   90/  5/  7 1022.5
NEW CANAL        1700   69 67   40/  8/  9 1022.6
SHELL BEACH      1700   68 66   40/  7/  8 1022.1

OFFSHORE STATIONS

STATION/POSITION TIME  TEMP    WIND        PRES    WAVE
                       AIR SEA DIR/SP/G            HT/PER
                 (UTC) (F)     (DEG/KT/KT) (MB)    (FT/S)
64 S DAUPHIN ISL 1632   64 71   40/ 14/ 17 1021.8

$$




USA.gov is the U.S. government's official web portal to all federal, state and local government web resources and services.